Location: Unspecified
(41.5516°N, 88.1098°W)
Time: 19:13:15
(UTC-05:00)

Cosmos 2058 - Visible Passes

Search period start: 25 September 2016 00:00
Search period end: 05 October 2016 00:00
Orbit: 563 x 587 km, 82.5° (Epoch: 25 September)

Date Brightness Start Highest point End Pass type
(mag) Time Alt. Az. Time Alt. Az. Time Alt. Az.
25 Sep 5.1 21:07:55 10° N 21:08:56 17° N 21:08:56 17° N visible
26 Sep 5.0 21:11:25 10° N 21:12:41 19° N 21:12:41 19° N visible
27 Sep 5.0 21:14:58 10° N 21:16:28 22° N 21:16:28 22° N visible
28 Sep 4.9 21:18:35 10° NNW 21:20:17 23° NNW 21:20:17 23° NNW visible
29 Sep 4.9 19:46:42 10° NE 19:47:53 13° NE 19:47:53 13° NE visible
29 Sep 5.0 21:22:16 10° NNW 21:24:08 24° NW 21:24:08 24° NW visible
30 Sep 4.5 19:49:43 10° NNE 19:51:47 18° NE 19:51:47 18° NE visible
30 Sep 5.1 21:26:01 10° NNW 21:28:02 23° NW 21:28:02 23° NW visible
01 Oct 4.1 19:52:55 10° NNE 19:55:45 24° ENE 19:55:45 24° ENE visible
01 Oct 5.3 21:29:51 10° NW 21:32:01 21° WNW 21:32:01 21° WNW visible
02 Oct 3.6 19:56:14 10° NNE 19:59:48 32° ENE 19:59:48 32° ENE visible
02 Oct 5.5 21:33:49 10° NW 21:36:04 18° WNW 21:36:04 18° WNW visible
03 Oct 3.2 19:59:37 10° N 20:03:35 44° ENE 20:03:56 43° E visible
03 Oct 5.8 21:38:01 10° NW 21:40:06 14° W 21:40:13 14° W visible
04 Oct 2.8 20:03:05 10° N 20:07:11 60° E 20:08:13 44° SE visible
04 Oct 6.1 21:43:14 10° W 21:43:32 10° W 21:43:50 10° W visible
